Location: Hiekkapohja
(62.3333°N, 25.7833°E)
Time: 18:17:07
(UTC+00:00)

SL-16 R/B - Pass Details

Date: 07 August 2020
Orbit: 985 x 1007 km, 99.5° (Epoch: 27 September)

Event Time Altitude Azimuth Distance (km) Brightness Sun altitude
Exits shadow 00:28:36 - 191° (SSW) 3,034 4.5 -7.5°
Reaches altitude 10° 00:29:19 10° 194° (SSW) 2,784 4.3 -7.5°
Maximum altitude 00:35:12 41° 263° (W) 1,423 3.1 -7.1°
Drops below altitude 10° 00:41:07 10° 333° (NNW) 2,792 5.3 -6.8°
Sets 00:43:47 0° 341° (NNW) 3,743 6.1 -6.6°
